Change the Weather History Date:

Friday, January 1, 1999

  Actual Average Record
Temperature  
Mean Temperature 0 °F -  
Max Temperature 12 °F 25 °F 48 °F (2005)
Min Temperature -11 °F 5 °F -18 °F (1998)
Degree Days  
Heating Degree Days 64    
Moisture  
Dew Point -7 °F    
Average Humidity 70    
Maximum Humidity 92    
Minimum Humidity 46    
Precipitation  
Precipitation 0.00 in - - ()
Sea Level Pressure  
Sea Level Pressure 30.00 in    
Wind  
Wind Speed 4 mph (WNW)    
Max Wind Speed 17 mph    
Max Gust Speed 26 mph    
Visibility 6 miles    
Events Fog , Snow    
Averages and records for this station are not official NWS values.
T = Trace of Precipitation, MM = Missing Value Source: NWS Daily Summary

Daily Weather History Graph

Daily Weather History Graph

Search for Another Location

Airport or City:

Trip Planner

Search our weather history database for the weather conditions in past years. The results will help you decide how hot, cold, wet, or windy it might be!

Date:

Astronomy

Jan. 01, 1999 Rise Set
Actual Time 7:21 AM EST 4:15 PM EST
Civil Twilight 6:48 AM EST 4:48 PM EST
Nautical Twilight 6:11 AM EST 5:25 PM EST
Astronomical Twilight 5:36 AM EST 6:00 PM EST
Moon 4:12 PM EST (1/1) 6:30 AM EST (1/1)
Length of Visible Light 10h 00m
Length of Day
8h 53m
Full, 100% of the Moon is Illuminated
Jan 1
Full
Jan 1
Full
Jan 9
Last Quarter
Jan 17
New
Jan 24
First Quarter

Hourly Weather History & Observations

Time (EST) Temp. Windchill Dew Point Humidity Pressure Visibility Wind Dir Wind Speed Gust Speed Precip Events Conditions
12:24 AM -0.4 °F - -5.8 °F 78% 29.85 in 5.0 mi Calm Calm - 0.00 in Snow Light Snow
12:52 AM -0.9 °F - -5.1 °F 83% 29.94 in 2.0 mi Calm Calm - 0.00 in Snow Light Snow
1:00 AM -0.4 °F - -5.8 °F 78% 29.83 in 1.8 mi Calm Calm - 0.00 in Snow Light Snow
1:10 AM -0.4 °F - -5.8 °F 78% 29.84 in 2.0 mi Calm Calm - 0.00 in Snow Light Snow
1:21 AM -0.4 °F - -4.0 °F 85% 29.83 in 1.8 mi Calm Calm - 0.00 in Snow Light Snow
1:38 AM -0.4 °F - -4.0 °F 85% 29.83 in 3.0 mi Calm Calm - 0.00 in Snow Light Snow
1:52 AM -0.0 °F - -4.0 °F 83% 29.93 in 6.0 mi Calm Calm - 0.00 in Snow Light Snow
2:21 AM 1.4 °F - -4.0 °F 78% 29.83 in 2.5 mi Calm Calm - 0.00 in Snow Light Snow
2:43 AM 1.4 °F - -2.2 °F 85% 29.83 in 3.0 mi Calm Calm - 0.00 in Snow Light Snow
2:52 AM 1.0 °F - -4.0 °F 79% 29.92 in 4.0 mi Calm Calm - 0.00 in Snow Light Snow
3:09 AM 1.4 °F - -2.2 °F 85% 29.82 in 2.5 mi Calm Calm - 0.00 in Snow Light Snow
3:52 AM 1.9 °F - -2.0 °F 83% 29.91 in 2.5 mi Calm Calm - 0.00 in Snow Light Snow
4:00 AM 1.4 °F - -0.4 °F 92% 29.81 in 3.0 mi Calm Calm - 0.00 in Snow Light Snow
4:52 AM 3.0 °F - -0.9 °F 84% 29.90 in 10.0 mi Calm Calm - 0.00 in   Overcast
5:52 AM 3.9 °F - -0.9 °F 80% 29.90 in 10.0 mi Calm Calm - N/A   Overcast
6:18 AM 3.2 °F - -0.4 °F 85% 29.80 in 9.0 mi Calm Calm - N/A   Overcast
6:52 AM 3.9 °F - -0.0 °F 84% 29.89 in 9.0 mi Calm Calm - N/A   Overcast
7:52 AM 3.0 °F - -0.9 °F 84% 29.89 in 8.0 mi Calm Calm - N/A   Overcast
8:52 AM 6.1 °F - 1.9 °F 83% 29.89 in 9.0 mi Calm Calm - N/A   Overcast
9:08 AM 8.6 °F - 3.2 °F 79% 29.80 in 9.0 mi Calm Calm - N/A   Overcast
9:52 AM 10.0 °F - 5.0 °F 80% 29.90 in 9.0 mi Calm Calm - N/A   Overcast
10:10 AM 10.4 °F 0.8 °F 6.8 °F 85% 29.83 in 1.8 mi NW 5.8 mph - 0.00 in Snow Light Snow
10:12 AM 12.2 °F -2.5 °F 6.8 °F 79% 29.83 in 0.8 mi WNW 12.7 mph - 0.00 in Snow Light Snow
10:17 AM 12.2 °F -2.5 °F 10.4 °F 92% 29.83 in 0.2 mi WNW 12.7 mph - 0.00 in Fog , Snow Heavy Snow
10:32 AM 12.2 °F 0.7 °F 8.6 °F 85% 29.84 in 0.5 mi WNW 8.1 mph - 0.00 in Fog , Snow Light Snow
10:52 AM 12.9 °F -0.9 °F 8.1 °F 81% 29.94 in 0.5 mi WNW 11.5 mph - 0.00 in Snow Snow
11:25 AM 10.4 °F -4.8 °F 3.2 °F 73% 29.87 in 1.0 mi WNW 12.7 mph - 0.00 in Snow Light Snow
11:37 AM 10.4 °F -2.4 °F 1.4 °F 67% 29.88 in 1.5 mi WNW 9.2 mph - 0.00 in Snow Light Snow
11:52 AM 9.0 °F -7.3 °F -0.0 °F 67% 29.98 in 4.0 mi WNW 13.8 mph 20.7 mph 0.00 in   Haze
12:06 PM 8.6 °F -4.7 °F -0.4 °F 67% 29.89 in 2.5 mi WNW 9.2 mph 17.3 mph 0.00 in Snow Light Snow
12:10 PM 8.6 °F -4.7 °F 1.4 °F 73% 29.90 in 4.0 mi WNW 9.2 mph - 0.00 in Snow Light Snow
12:17 PM 8.6 °F -6.3 °F -0.4 °F 67% 29.90 in 9.0 mi West 11.5 mph 18.4 mph 0.00 in   Mostly Cloudy
12:32 PM 8.6 °F -6.3 °F -2.2 °F 62% 29.91 in 10.0 mi West 11.5 mph - 0.00 in   Scattered Clouds
12:52 PM 7.0 °F -10.4 °F -5.1 °F 58% 30.01 in 9.0 mi West 15.0 mph 21.9 mph 0.00 in   Partly Cloudy
1:21 PM 6.8 °F -7.8 °F -5.8 °F 56% 29.95 in 6.0 mi NW 10.4 mph 20.7 mph N/A   Haze
1:52 PM 3.9 °F -15.0 °F -8.0 °F 58% 30.07 in 6.0 mi NW 16.1 mph 23.0 mph N/A   Haze
2:06 PM 3.2 °F -15.9 °F -11.2 °F 51% 29.98 in 9.0 mi WNW 16.1 mph 23.0 mph 0.00 in   Scattered Clouds
2:52 PM -0.0 °F -17.1 °F -14.1 °F 52% 30.12 in 8.0 mi WNW 11.5 mph 21.9 mph 0.00 in   Mostly Cloudy
3:17 PM -0.4 °F -18.4 °F -11.2 °F 60% 30.05 in 1.8 mi WNW 12.7 mph 23.0 mph 0.00 in Snow Light Snow
3:28 PM -0.4 °F -19.9 °F -16.6 °F 46% 30.06 in 3.0 mi WNW 15.0 mph 24.2 mph 0.00 in Snow Light Snow
3:52 PM -2.9 °F -21.6 °F -18.9 °F 46% 30.18 in 9.0 mi WNW 12.7 mph 21.9 mph 0.00 in   Clear
4:52 PM -5.1 °F -20.4 °F -20.0 °F 49% 30.23 in 10.0 mi NW 8.1 mph - N/A   Clear
5:52 PM -8.0 °F -26.1 °F -20.9 °F 53% 30.30 in 10.0 mi WNW 10.4 mph 16.1 mph N/A   Clear
6:52 PM -9.9 °F -19.2 °F -23.1 °F 52% 30.35 in 10.0 mi WNW 3.5 mph - N/A   Clear
7:52 PM -11.0 °F -29.9 °F -23.1 °F 55% 30.37 in 10.0 mi West 10.4 mph - N/A   Mostly Cloudy
8:05 PM -11.2 °F -29.0 °F -23.8 °F 54% 30.26 in 10.0 mi West 9.2 mph 18.4 mph N/A   Mostly Cloudy
8:17 PM -11.2 °F -32.9 °F -23.8 °F 54% 30.26 in 10.0 mi West 13.8 mph 19.6 mph N/A   Scattered Clouds
8:45 PM -11.2 °F -34.4 °F -22.0 °F 59% 30.28 in 10.0 mi West 16.1 mph 25.3 mph N/A   Mostly Cloudy
8:52 PM -11.9 °F -33.8 °F -22.0 °F 61% 30.38 in 10.0 mi West 13.8 mph 25.3 mph N/A   Mostly Cloudy
9:52 PM -11.9 °F -36.1 °F -23.1 °F 58% 30.40 in 7.0 mi West 17.3 mph 26.5 mph N/A   Overcast
10:19 PM -11.2 °F -34.4 °F -22.0 °F 59% 30.31 in 5.0 mi West 16.1 mph 25.3 mph N/A   Haze
10:52 PM -11.9 °F -34.6 °F -23.1 °F 58% 30.43 in 9.0 mi West 15.0 mph 21.9 mph N/A   Overcast
11:52 PM -11.9 °F -33.8 °F -22.0 °F 61% 30.46 in 8.0 mi WNW 13.8 mph 24.2 mph N/A   Overcast